CZ-6A DEB

Satellite information

Favourite Embed

Satellite Type and Status

DEBRISIN ORBIT

Key statistics

Satellite CZ-6A DEB at a glance.

Uptime

1031

Days in orbit

Revolutions

≈ 14.2

Per day

Orbit

SSO

Sun Synchronous Orbit

Inclination

98.8

Latest

Satellite identification and parameters

Extended collection of information and parameters for CZ-6A DEB.

Object identification

Identified? True

Debris? True

Object name: CZ-6A DEB

International designator: 2022-151KX

Object number (NORAD): 54547

Object ID (CCSDS): 54547

Country: PEOPLES REPUBLIC OF CHINA (PRC)

Current information (Y/N): Y

RCS size: SMALL

Orbital parameters

Period: 101.149 minutes

Inclination: 98.8105 deg

SMA: 7191.179 km

Apoapsis: 882.368 km

Periapsis: 743.719 km

RAAN: 255.0245 deg

Eccentricy: 0.00964022

Argument of periapsis: 87.0447 deg

Mean anomaly: 274.1758 deg

Mean motion: 14.23648041 rev/day

Mean motion (dot): 0.00010994 rev/day2

B* drag term: 0.0046070488 1/REarth

Two-line elements (TLE)

Creation date: Sept. 7, 2025, 3:09 a.m.

Reference frame: TEME

Reference center: EARTH

Epoch: Sept. 6, 2025, 10:09 p.m. UTC

TLE line 0: 0 CZ-6A DEB

TLE line 1: 1 54547U 22151KX 25249.92329901 .00010994 00000-0 46070-2 0 9995

TLE line 2: 2 54547 98.8105 255.0245 0096402 87.0447 274.1758 14.23648041145245

Live tracking on map

Real-time ground track for satellite CZ-6A DEB.

In-orbit conjunctions

A list of the most updated potential collisions computed for object CZ-6A DEB.

Target Orbit TCA Probability of collision Miss distance Type
COSMOS 1570 LEO 2024-08-26 11:16:31 0.002172768 90.0 (m) PAYLOAD
THORAD AGENA D DEB SSO 2024-07-29 19:44:15 0.0001485294 188.0 (m) DEBRIS

Associated space launch

Chinese satellite reported for atmospheric/ocean/environmental/spatial parameter research purposes, details TBD.

CZ-6A DEB was lifted into orbit during the mission ‘Long March 6A | Yunhai 3’, on board a Long March 6A space rocket.

The launch took place on Nov. 11, 2022, 10:52 p.m. from Launch Complex 9A.

For more information about the launch, click the button.

Launch to space Long March 6A | Yunhai 3
Long March 6A | Yunhai 3

Agency: N/A

Status: Launch Successful

Launch date: Nov. 11, 2022, 10:52 p.m. UTC

Rocket: Long March 6A

Launch pad: Launch Complex 9A

Location: Taiyuan Satellite Launch Center, People's Republic of China

...

Latest news about this satellite

There are no fresh news available about this satellite. Check back as we update our databases every day.


Newsletter sign-up

Weekly statistics, charts and insights to help you stay on top of the space industry.